TimeCST,TemperatureF,Dew PointF,Humidity,Sea Level PressureIn,VisibilityMPH,Wind Direction,Wind SpeedMPH,Gust SpeedMPH,PrecipitationIn,Events,Conditions,WindDirDegrees,DateUTC
12:53 AM,41.0,30.0,65,30.14,10.0,NW,5.8,-,N/A,,Partly Cloudy,310,2013-02-15 06:53:00
1:53 AM,39.9,28.9,65,30.15,10.0,WNW,4.6,-,N/A,,Scattered Clouds,290,2013-02-15 07:53:00
2:53 AM,39.0,28.9,67,30.15,10.0,NW,4.6,-,N/A,,Scattered Clouds,310,2013-02-15 08:53:00
3:53 AM,37.0,28.0,70,30.17,10.0,WNW,5.8,-,N/A,,Clear,300,2013-02-15 09:53:00
4:53 AM,36.0,25.0,64,30.20,10.0,NW,8.1,-,N/A,,Clear,310,2013-02-15 10:53:00
5:53 AM,34.0,23.0,64,30.22,10.0,NW,4.6,-,N/A,,Clear,310,2013-02-15 11:53:00
6:53 AM,32.0,24.1,73,30.24,10.0,NW,8.1,-,N/A,,Clear,310,2013-02-15 12:53:00
7:53 AM,32.0,24.1,73,30.28,10.0,NW,9.2,-,N/A,,Partly Cloudy,310,2013-02-15 13:53:00
8:12 AM,32.0,24.8,75,30.26,10.0,NW,8.1,16.1,N/A,,Mostly Cloudy,310,2013-02-15 14:12:00
8:53 AM,32.0,26.1,79,30.30,10.0,NW,11.5,-,N/A,,Overcast,310,2013-02-15 14:53:00
9:53 AM,34.0,26.1,73,30.30,10.0,NNW,11.5,21.9,N/A,,Overcast,330,2013-02-15 15:53:00
10:53 AM,35.1,25.0,67,30.31,10.0,NW,11.5,-,N/A,,Overcast,320,2013-02-15 16:53:00
11:53 AM,37.0,23.0,57,30.30,10.0,NNW,9.2,-,N/A,,Overcast,330,2013-02-15 17:53:00
12:53 PM,39.0,21.0,49,30.28,10.0,NW,11.5,17.3,N/A,,Mostly Cloudy,310,2013-02-15 18:53:00
1:53 PM,39.9,19.9,45,30.26,10.0,NW,10.4,-,N/A,,Mostly Cloudy,320,2013-02-15 19:53:00
2:53 PM,41.0,18.0,40,30.25,10.0,NW,12.7,17.3,N/A,,Scattered Clouds,310,2013-02-15 20:53:00
3:53 PM,39.9,10.9,31,30.25,10.0,NNW,12.7,19.6,N/A,,Clear,330,2013-02-15 21:53:00
4:53 PM,39.0,14.0,36,30.26,10.0,NW,12.7,-,N/A,,Clear,310,2013-02-15 22:53:00
5:53 PM,35.1,12.0,39,30.27,10.0,NW,8.1,-,N/A,,Clear,320,2013-02-15 23:53:00
6:53 PM,33.1,12.0,42,30.29,10.0,NW,8.1,-,N/A,,Clear,310,2013-02-16 00:53:00
7:53 PM,30.0,12.9,49,30.31,10.0,NW,4.6,-,N/A,,Clear,310,2013-02-16 01:53:00
8:53 PM,28.9,12.9,51,30.31,10.0,WNW,4.6,-,N/A,,Clear,300,2013-02-16 02:53:00
9:53 PM,28.0,12.9,53,30.31,10.0,WNW,4.6,-,N/A,,Clear,300,2013-02-16 03:53:00
10:53 PM,27.0,12.9,56,30.30,10.0,West,4.6,-,N/A,,Clear,270,2013-02-16 04:53:00
11:53 PM,26.1,12.9,58,30.28,10.0,West,4.6,-,N/A,,Clear,260,2013-02-16 05:53:00